Weather in Bamenda

Cameroon     5°57′32″N   10°09′13″E
temp.,
°C
wind,
m/s
gust,
m/s
humid.,
%
clouds,
%
prec.,
mm/h
press.,
hPa
HPBL,
m
17 april, sat
sat1701:00+18sse128887 0.3 101245
04:00+17se1186100 0.0 101113
07:00+18ssw1180100 0.0 101329
10:00+25nw1155100 0.0 1013707
13:00+25n1256100 0.7 1010942
16:00+23nw3368100 2.2 1009353
19:00+19nw1290100 4.7 101159
22:00+19ene118690 2.1 101416
18 april, sun
sun1801:00+18sse118893 3.0 101319
04:00+18ssw1192100 0.3 101341
07:00+18sse018699 0.3 101416
10:00+25ese015698 0.0 1014785
13:00+22nw127659 2.9 1013107
16:00+24nw336468 2.8 1010737
19:00+19wnw118747 5.4 101334
22:00+18wnw1188100 0.4 101519
19 april, mon
mon1901:00+18s118867 0.8 101411
04:00+17se118899 0.6 101318
07:00+18se1287100 1.0 101546
10:00+25e115911 0.3 1014717
13:00+27sse135085 2.1 10111805
16:00+19w2491100 9.8 1011184
19:00+18wnw3498100 35.6 1014219
22:00+18wsw1195100 2.2 101545
20 april, tue
tue2001:00+18sse2189100 2.2 101231
04:00+18se2289100 0.0 101239
07:00+18se2289100 0.6 101449
10:00+22se237464 1.3 1014328
13:00+25ese126095 3.1 10121167
16:00+24nnw126898 2.4 1009534
19:00+20sse1186100 4.2 101120
22:00+19ese0084100 0.9 101311
21 april, wed
wed2101:00+18se1189100 1.7 101211
04:00+18sse1190100 1.5 101220
07:00+18se1188100 1.5 101316
10:00+21n007999 0.6 1015172
13:00+25nw126337 1.9 1012852
16:00+24nw116841 3.9 1010514
19:00+19nw119056 5.1 101226
22:00+18nw119158 0.9 101518